This demonstration page uses our WeatherBlox Daily Observations layout. Learn more.

Left ArrowRight Arrow

40.97296, -117.73568

Hourly Observations for February 18, 2019

Temp ( °F °C ) Dew Point ( °F °C ) Humidity (%) Winds ( mph kmh ) Pressure ( in mb ) Visibility ( mi km ) Precip ( " mm )
12:56 am 00:56 Partly Cloudy 17 -8.3 12 -11.1 80 80 NW 5 7 30.10 1019 10 16 0.00 0.00
1:56 am 01:56 Cloudy 18 -7.8 14 -10 84 84 Calm 30.10 1019 10 16 0.00 0.00
2:56 am 02:56 Mostly Cloudy 17 -8.3 13 -10.6 84 84 Calm 30.10 1019 10 16 0.00 0.00
3:56 am 03:56 Partly Cloudy 18 -7.8 13 -10.6 81 81 WNW 6 9 30.10 1019 10 16 0.00 0.00
4:56 am 04:56 Cloudy 19 -7.2 16 -8.9 88 88 Calm 30.13 1020 10 16 0.00 0.00
5:56 am 05:56 Cloudy 20 -6.7 17 -8.3 89 89 Calm 30.14 1021 10 16 0.00 0.00
6:56 am 06:56 Cloudy 22 -5.6 19 -7.2 89 89 Calm 30.16 1022 10 16 0.00 0.00
7:56 am 07:56 Cloudy 24 -4.4 20 -6.7 84 84 WNW 7 11 30.19 1022 10 16 0.00 0.00
8:56 am 08:56 Cloudy 27 -2.8 21 -6.1 78 78 WNW 6 9 30.20 1023 10 16 0.00 0.00
9:17 am 09:17 Cloudy 27 -2.8 21 -6.1 78 78 NNW 6 9 30.28 1025 10 16 0.00 0.00
9:48 am 09:48 Mostly Cloudy 28 -2 19 -7 69 69 N 10 17 30.27 1025 10 16 0.00 0.00
9:56 am 09:56 Mostly Cloudy 29 -1.7 19 -7.2 66 66 N 13 20 30.21 1023 10 16 0.00 0.00
10:56 am 10:56 Mostly Sunny 31 -0.6 18 -7.8 59 59 NNW 12 19 30.23 1024 10 16 0.00 0.00
11:56 am 11:56 Mostly Cloudy 30 -1.1 17 -8.3 58 58 NNW 9 15 30.22 1024 10 16 0.00 0.00
12:56 pm 12:56 Mostly Cloudy 30 -1.1 15 -9.4 54 54 NNW 10 17 30.21 1023 10 16 0.00 0.00
1:56 pm 13:56 Cloudy 31 -0.6 16 -8.9 54 54 N 13 20 30.19 1023 10 16 0.00 0.00
2:56 pm 14:56 Cloudy 31 -0.6 13 -10.6 47 47 N 10 17 30.19 1023 10 16 0.00 0.00
3:56 pm 15:56 Cloudy 30 -1.1 14 -10 51 51 NW 9 15 30.19 1022 10 16 0.00 0.00
4:56 pm 16:56 Cloudy 28 -2.2 17 -8.3 63 63 N 13 20 30.19 1023 10 16 0.00 0.00
5:56 pm 17:56 Cloudy 27 -2.8 18 -7.8 69 69 NNW 6 9 30.21 1023 10 16 0.00 0.00
6:56 pm 18:56 Cloudy 27 -2.8 16 -8.9 63 63 N 10 17 30.22 1023 10 16 0.00 0.00
7:56 pm 19:56 Mostly Cloudy 25 -3.9 14 -10 63 63 NW 10 17 30.22 1023 10 16 0.00 0.00
8:56 pm 20:56 Clear 22 -5.6 14 -10 71 71 NNW 6 9 30.23 1024 10 16 0.00 0.00
9:56 pm 21:56 Clear 19 -7.2 13 -10.6 77 77 NNW 5 7 30.23 1024 10 16 0.00 0.00
10:56 pm 22:56 Clear 18 -7.8 14 -10 84 84 WNW 7 11 30.22 1023 10 16 0.00 0.00
11:56 pm 23:56 Clear 16 -8.9 13 -10.6 88 88 Calm 30.23 1024 10 16 0.00 0.00

Powered by Vaisala Xweather